{"data":{"norad_id":55658,"epoch":"2026-09-20T21:24:03.604896Z","epoch_age_seconds":69219,"freshness":"FRESH","line1":"1 55658U 23021AG  26263.89170839  .00000012  00000+0  87807-5 0  9998","line2":"2 55658  70.0001  52.1657 0002698 269.8500  90.2350 14.98330502198035","mean_motion":14.98330502,"eccentricity":0.0002698,"inclination_deg":70.0001,"raan_deg":52.1657,"arg_perigee_deg":269.85,"mean_anomaly_deg":90.235,"bstar":8.7807e-6,"rev_number":19803,"period_min":96.106966926046,"perigee_km":570.17917692812,"apogee_km":573.9295001744,"semimajor_km":6950.1913385513,"source":"CELESTRAK","updated_at":"2026-09-21T09:00:33.287439Z"}}